Time,TemperatureF,DewpointF,PressureIn,WindDirection,WindDirectionDegrees,WindSpeedMPH,WindSpeedGustMPH,Humidity,HourlyPrecipIn,Conditions,Clouds,dailyrainin,SolarRadiationWatts/m^2,SoftwareType,DateUTC
2013-09-26 00:04:00,50.4,16.5,29.40,North,-999,-999.0,-999.0,6,0.00,,,-99.99,0.0,Linux-Irox,2013-09-26 07:04:00,
2013-09-26 00:14:00,50.5,16.7,29.40,North,-999,-999.0,-999.0,6,0.00,,,-99.99,0.0,Linux-Irox,2013-09-26 07:14:00,
2013-09-26 00:24:00,50.2,16.3,29.41,North,-999,-999.0,-999.0,6,0.00,,,-99.99,0.0,Linux-Irox,2013-09-26 07:24:00,
2013-09-26 00:34:00,50.2,16.3,29.41,North,-999,-999.0,-999.0,6,0.00,,,-99.99,0.0,Linux-Irox,2013-09-26 07:34:00,
2013-09-26 00:44:00,50.0,16.2,29.41,North,-999,-999.0,-999.0,6,0.00,,,-99.99,0.0,Linux-Irox,2013-09-26 07:44:00,
2013-09-26 00:54:00,50.0,16.2,29.41,North,-999,-999.0,-999.0,6,0.00,,,-99.99,0.0,Linux-Irox,2013-09-26 07:54:00,
2013-09-26 01:04:00,50.0,17.2,29.41,North,-999,-999.0,-999.0,9,0.00,,,-99.99,0.0,Linux-Irox,2013-09-26 08:04:00,
2013-09-26 01:14:00,49.6,17.2,29.41,North,-999,-999.0,-999.0,10,0.00,,,-99.99,0.0,Linux-Irox,2013-09-26 08:14:00,
2013-09-26 01:24:00,49.5,17.1,29.40,North,-999,-999.0,-999.0,10,0.00,,,-99.99,0.0,Linux-Irox,2013-09-26 08:24:00,
2013-09-26 01:34:00,49.5,17.1,29.40,North,-999,-999.0,-999.0,10,0.00,,,-99.99,0.0,Linux-Irox,2013-09-26 08:34:00,
2013-09-26 01:44:00,49.1,16.7,29.40,North,-999,-999.0,-999.0,10,0.00,,,-99.99,0.0,Linux-Irox,2013-09-26 08:44:00,
2013-09-26 01:54:00,49.8,17.4,29.40,North,-999,-999.0,-999.0,10,0.00,,,-99.99,0.0,Linux-Irox,2013-09-26 08:54:00,
2013-09-26 02:04:00,50.0,17.2,29.40,North,-999,-999.0,-999.0,9,0.00,,,-99.99,0.0,Linux-Irox,2013-09-26 09:04:00,
2013-09-26 02:14:00,50.0,17.2,29.40,North,-999,-999.0,-999.0,9,0.00,,,-99.99,0.0,Linux-Irox,2013-09-26 09:14:00,
2013-09-26 02:24:00,49.8,17.4,29.42,North,-999,-999.0,-999.0,10,0.00,,,-99.99,0.0,Linux-Irox,2013-09-26 09:24:00,
2013-09-26 02:34:00,49.6,17.2,29.42,North,-999,-999.0,-999.0,10,0.00,,,-99.99,0.0,Linux-Irox,2013-09-26 09:34:00,
2013-09-26 02:44:00,49.5,17.1,29.41,North,-999,-999.0,-999.0,10,0.00,,,-99.99,0.0,Linux-Irox,2013-09-26 09:44:00,
2013-09-26 02:54:00,49.5,17.1,29.41,North,-999,-999.0,-999.0,10,0.00,,,-99.99,0.0,Linux-Irox,2013-09-26 09:54:00,
2013-09-26 03:04:00,49.3,16.9,29.42,North,-999,-999.0,-999.0,10,0.00,,,-99.99,0.0,Linux-Irox,2013-09-26 10:04:00,
2013-09-26 03:14:00,49.1,16.7,29.42,North,-999,-999.0,-999.0,10,0.00,,,-99.99,0.0,Linux-Irox,2013-09-26 10:14:00,
2013-09-26 03:24:00,49.1,16.7,29.42,North,-999,-999.0,-999.0,10,0.00,,,-99.99,0.0,Linux-Irox,2013-09-26 10:24:00,
2013-09-26 03:34:00,48.9,16.5,29.42,North,-999,-999.0,-999.0,10,0.00,,,-99.99,0.0,Linux-Irox,2013-09-26 10:34:00,
2013-09-26 03:44:00,48.9,16.5,29.42,North,-999,-999.0,-999.0,10,0.00,,,-99.99,0.0,Linux-Irox,2013-09-26 10:44:00,
2013-09-26 03:54:00,48.9,16.5,29.42,North,-999,-999.0,-999.0,10,0.00,,,-99.99,0.0,Linux-Irox,2013-09-26 10:54:00,
2013-09-26 04:04:00,48.7,16.3,29.43,North,-999,-999.0,-999.0,10,0.00,,,-99.99,0.0,Linux-Irox,2013-09-26 11:04:00,
2013-09-26 04:14:00,48.6,16.2,29.43,North,-999,-999.0,-999.0,10,0.00,,,-99.99,0.0,Linux-Irox,2013-09-26 11:14:00,
2013-09-26 04:24:00,48.6,16.2,29.43,North,-999,-999.0,-999.0,10,0.00,,,-99.99,0.0,Linux-Irox,2013-09-26 11:24:00,
2013-09-26 04:34:00,48.2,15.8,29.43,North,-999,-999.0,-999.0,10,0.00,,,-99.99,0.0,Linux-Irox,2013-09-26 11:34:00,
2013-09-26 04:44:00,48.4,16.0,29.43,North,-999,-999.0,-999.0,10,0.00,,,-99.99,0.0,Linux-Irox,2013-09-26 11:44:00,
2013-09-26 04:54:00,48.0,15.6,29.43,North,-999,-999.0,-999.0,10,0.00,,,-99.99,0.0,Linux-Irox,2013-09-26 11:54:00,
2013-09-26 05:04:00,48.0,15.6,29.45,North,-999,-999.0,-999.0,10,0.00,,,-99.99,0.0,Linux-Irox,2013-09-26 12:04:00,
2013-09-26 05:14:00,48.4,16.0,29.45,North,-999,-999.0,-999.0,10,0.00,,,-99.99,0.0,Linux-Irox,2013-09-26 12:14:00,
2013-09-26 05:24:00,48.2,15.8,29.45,North,-999,-999.0,-999.0,10,0.00,,,-99.99,0.0,Linux-Irox,2013-09-26 12:24:00,
2013-09-26 05:34:00,47.3,14.9,29.45,North,-999,-999.0,-999.0,10,0.00,,,-99.99,0.0,Linux-Irox,2013-09-26 12:34:00,
2013-09-26 05:44:00,46.8,14.4,29.45,North,-999,-999.0,-999.0,10,0.00,,,-99.99,0.0,Linux-Irox,2013-09-26 12:44:00,
2013-09-26 05:46:00,47.1,14.7,29.45,North,-999,-999.0,-999.0,10,0.00,,,-99.99,0.0,Linux-Irox,2013-09-26 12:46:00,
2013-09-26 05:54:00,47.3,14.9,29.45,North,-999,-999.0,-999.0,10,0.00,,,-99.99,0.0,Linux-Irox,2013-09-26 12:54:00,
2013-09-26 06:01:00,47.5,15.1,29.44,North,-999,-999.0,-999.0,10,0.00,,,-99.99,0.0,Linux-Irox,2013-09-26 13:01:00,
2013-09-26 06:04:00,47.5,15.1,29.44,North,-999,-999.0,-999.0,10,0.00,,,-99.99,0.0,Linux-Irox,2013-09-26 13:04:00,
2013-09-26 06:14:00,45.9,13.8,29.44,North,-999,-999.0,-999.0,11,0.00,,,-99.99,0.0,Linux-Irox,2013-09-26 13:14:00,
2013-09-26 06:16:00,45.9,13.8,29.43,North,-999,-999.0,-999.0,11,0.00,,,-99.99,0.0,Linux-Irox,2013-09-26 13:16:00,
2013-09-26 06:24:00,46.6,14.2,29.43,North,-999,-999.0,-999.0,10,0.00,,,-99.99,0.0,Linux-Irox,2013-09-26 13:24:00,
2013-09-26 06:31:00,46.0,14.0,29.43,North,-999,-999.0,-999.0,11,0.00,,,-99.99,0.0,Linux-Irox,2013-09-26 13:31:00,
2013-09-26 06:34:00,46.4,14.0,29.43,North,-999,-999.0,-999.0,10,0.00,,,-99.99,0.0,Linux-Irox,2013-09-26 13:34:00,
2013-09-26 06:44:00,48.6,16.2,29.43,North,-999,-999.0,-999.0,10,0.00,,,-99.99,0.0,Linux-Irox,2013-09-26 13:44:00,
2013-09-26 06:46:00,49.3,16.9,29.43,North,-999,-999.0,-999.0,10,0.00,,,-99.99,0.0,Linux-Irox,2013-09-26 13:46:00,
2013-09-26 06:54:00,50.2,17.4,29.43,North,-999,-999.0,-999.0,9,0.00,,,-99.99,0.0,Linux-Irox,2013-09-26 13:54:00,
2013-09-26 07:01:00,48.4,16.0,29.43,North,-999,-999.0,-999.0,10,0.00,,,-99.99,0.0,Linux-Irox,2013-09-26 14:01:00,
2013-09-26 07:04:00,47.5,15.1,29.43,North,-999,-999.0,-999.0,10,0.00,,,-99.99,0.0,Linux-Irox,2013-09-26 14:04:00,
2013-09-26 07:14:00,47.1,14.7,29.43,North,-999,-999.0,-999.0,10,0.00,,,-99.99,0.0,Linux-Irox,2013-09-26 14:14:00,
2013-09-26 07:16:00,47.1,14.7,29.44,North,-999,-999.0,-999.0,10,0.00,,,-99.99,0.0,Linux-Irox,2013-09-26 14:16:00,
2013-09-26 07:24:00,46.9,14.5,29.44,North,-999,-999.0,-999.0,10,0.00,,,-99.99,0.0,Linux-Irox,2013-09-26 14:24:00,
2013-09-26 07:31:00,46.8,14.4,29.44,North,-999,-999.0,-999.0,10,0.00,,,-99.99,0.0,Linux-Irox,2013-09-26 14:31:00,
2013-09-26 07:34:00,48.0,15.6,29.44,North,-999,-999.0,-999.0,10,0.00,,,-99.99,0.0,Linux-Irox,2013-09-26 14:34:00,
2013-09-26 07:44:00,50.5,17.8,29.44,North,-999,-999.0,-999.0,9,0.00,,,-99.99,0.0,Linux-Irox,2013-09-26 14:44:00,
2013-09-26 07:46:00,50.9,18.1,29.44,North,-999,-999.0,-999.0,9,0.00,,,-99.99,0.0,Linux-Irox,2013-09-26 14:46:00,
2013-09-26 07:54:00,51.8,17.6,29.44,North,-999,-999.0,-999.0,5,0.00,,,-99.99,0.0,Linux-Irox,2013-09-26 14:54:00,
2013-09-26 08:01:00,52.7,18.5,29.44,North,-999,-999.0,-999.0,5,0.00,,,-99.99,0.0,Linux-Irox,2013-09-26 15:01:00,
2013-09-26 08:04:00,52.9,18.7,29.44,North,-999,-999.0,-999.0,5,0.00,,,-99.99,0.0,Linux-Irox,2013-09-26 15:04:00,
2013-09-26 08:09:00,52.9,18.7,29.44,North,-999,-999.0,-999.0,5,0.00,,,-99.99,0.0,Linux-Irox,2013-09-26 15:09:00,
2013-09-26 08:14:00,55.2,21.0,29.44,North,-999,-999.0,-999.0,5,0.00,,,-99.99,0.0,Linux-Irox,2013-09-26 15:14:00,
2013-09-26 08:16:00,55.4,21.2,29.43,North,-999,-999.0,-999.0,5,0.00,,,-99.99,0.0,Linux-Irox,2013-09-26 15:16:00,
2013-09-26 08:24:00,57.6,23.4,29.43,North,-999,-999.0,-999.0,5,0.00,,,-99.99,0.0,Linux-Irox,2013-09-26 15:24:00,
2013-09-26 08:31:00,59.9,25.7,29.43,North,-999,-999.0,-999.0,5,0.00,,,-99.99,0.0,Linux-Irox,2013-09-26 15:31:00,
2013-09-26 08:34:00,60.3,26.1,29.43,North,-999,-999.0,-999.0,5,0.00,,,-99.99,0.0,Linux-Irox,2013-09-26 15:34:00,
2013-09-26 08:44:00,63.1,28.9,29.45,North,-999,-999.0,-999.0,5,0.00,,,-99.99,0.0,Linux-Irox,2013-09-26 15:44:00,
2013-09-26 08:46:00,63.3,29.1,29.45,North,-999,-999.0,-999.0,5,0.00,,,-99.99,0.0,Linux-Irox,2013-09-26 15:46:00,
2013-09-26 08:54:00,62.6,28.4,29.45,North,-999,-999.0,-999.0,5,0.00,,,-99.99,0.0,Linux-Irox,2013-09-26 15:54:00,
2013-09-26 09:01:00,63.1,28.9,29.44,North,-999,-999.0,-999.0,5,0.00,,,-99.99,0.0,Linux-Irox,2013-09-26 16:01:00,
2013-09-26 09:14:00,63.1,28.9,29.44,North,-999,-999.0,-999.0,5,0.00,,,-99.99,0.0,Linux-Irox,2013-09-26 16:14:00,
2013-09-26 09:16:00,62.2,28.0,29.45,North,-999,-999.0,-999.0,5,0.00,,,-99.99,0.0,Linux-Irox,2013-09-26 16:16:00,
2013-09-26 09:24:00,62.8,28.6,29.45,North,-999,-999.0,-999.0,5,0.00,,,-99.99,0.0,Linux-Irox,2013-09-26 16:24:00,
2013-09-26 09:31:00,64.2,30.0,29.45,North,-999,-999.0,-999.0,5,0.00,,,-99.99,0.0,Linux-Irox,2013-09-26 16:31:00,
2013-09-26 09:34:00,63.3,29.1,29.45,North,-999,-999.0,-999.0,5,0.00,,,-99.99,0.0,Linux-Irox,2013-09-26 16:34:00,
2013-09-26 09:44:00,65.7,31.5,29.46,North,-999,-999.0,-999.0,5,0.00,,,-99.99,0.0,Linux-Irox,2013-09-26 16:44:00,
2013-09-26 09:46:00,66.4,32.2,29.46,North,-999,-999.0,-999.0,5,0.00,,,-99.99,0.0,Linux-Irox,2013-09-26 16:46:00,
2013-09-26 09:54:00,65.5,31.3,29.46,North,-999,-999.0,-999.0,5,0.00,,,-99.99,0.0,Linux-Irox,2013-09-26 16:54:00,
2013-09-26 10:01:00,66.4,32.2,29.46,North,-999,-999.0,-999.0,5,0.00,,,-99.99,0.0,Linux-Irox,2013-09-26 17:01:00,
2013-09-26 10:04:00,67.5,33.3,29.46,North,-999,-999.0,-999.0,5,0.00,,,-99.99,0.0,Linux-Irox,2013-09-26 17:04:00,
2013-09-26 10:14:00,68.0,33.8,29.46,North,-999,-999.0,-999.0,5,0.00,,,-99.99,0.0,Linux-Irox,2013-09-26 17:14:00,
2013-09-26 10:16:00,68.0,33.8,29.45,North,-999,-999.0,-999.0,5,0.00,,,-99.99,0.0,Linux-Irox,2013-09-26 17:16:00,
2013-09-26 10:24:00,67.6,33.4,29.45,North,-999,-999.0,-999.0,5,0.00,,,-99.99,0.0,Linux-Irox,2013-09-26 17:24:00,
2013-09-26 10:31:00,67.8,33.6,29.45,North,-999,-999.0,-999.0,5,0.00,,,-99.99,0.0,Linux-Irox,2013-09-26 17:31:00,
2013-09-26 10:34:00,67.8,33.6,29.45,North,-999,-999.0,-999.0,5,0.00,,,-99.99,0.0,Linux-Irox,2013-09-26 17:34:00,
2013-09-26 10:44:00,69.1,34.9,29.46,North,-999,-999.0,-999.0,5,0.00,,,-99.99,0.0,Linux-Irox,2013-09-26 17:44:00,
2013-09-26 10:46:00,70.0,35.8,29.46,North,-999,-999.0,-999.0,5,0.00,,,-99.99,0.0,Linux-Irox,2013-09-26 17:46:00,
2013-09-26 10:54:00,70.2,36.0,29.46,North,-999,-999.0,-999.0,5,0.00,,,-99.99,0.0,Linux-Irox,2013-09-26 17:54:00,
2013-09-26 11:01:00,68.9,34.7,29.46,North,-999,-999.0,-999.0,5,0.00,,,-99.99,0.0,Linux-Irox,2013-09-26 18:01:00,
2013-09-26 11:04:00,69.8,35.6,29.46,North,-999,-999.0,-999.0,5,0.00,,,-99.99,0.0,Linux-Irox,2013-09-26 18:04:00,
2013-09-26 11:14:00,69.4,35.2,29.46,North,-999,-999.0,-999.0,5,0.00,,,-99.99,0.0,Linux-Irox,2013-09-26 18:14:00,
2013-09-26 11:16:00,70.2,36.0,29.46,North,-999,-999.0,-999.0,5,0.00,,,-99.99,0.0,Linux-Irox,2013-09-26 18:16:00,
2013-09-26 11:24:00,70.5,36.3,29.46,North,-999,-999.0,-999.0,5,0.00,,,-99.99,0.0,Linux-Irox,2013-09-26 18:24:00,
2013-09-26 11:31:00,69.1,34.9,29.46,North,-999,-999.0,-999.0,5,0.00,,,-99.99,0.0,Linux-Irox,2013-09-26 18:31:00,
2013-09-26 11:34:00,70.2,36.0,29.46,North,-999,-999.0,-999.0,5,0.00,,,-99.99,0.0,Linux-Irox,2013-09-26 18:34:00,
2013-09-26 11:44:00,70.9,36.7,29.46,North,-999,-999.0,-999.0,5,0.00,,,-99.99,0.0,Linux-Irox,2013-09-26 18:44:00,
2013-09-26 11:46:00,70.3,36.1,29.46,North,-999,-999.0,-999.0,5,0.00,,,-99.99,0.0,Linux-Irox,2013-09-26 18:46:00,
2013-09-26 11:54:00,70.9,36.7,29.46,North,-999,-999.0,-999.0,5,0.00,,,-99.99,0.0,Linux-Irox,2013-09-26 18:54:00,
2013-09-26 12:01:00,70.2,36.0,29.46,North,-999,-999.0,-999.0,5,0.00,,,-99.99,0.0,Linux-Irox,2013-09-26 19:01:00,
2013-09-26 12:04:00,70.2,36.0,29.46,North,-999,-999.0,-999.0,5,0.00,,,-99.99,0.0,Linux-Irox,2013-09-26 19:04:00,
2013-09-26 12:14:00,70.9,36.7,29.46,North,-999,-999.0,-999.0,5,0.00,,,-99.99,0.0,Linux-Irox,2013-09-26 19:14:00,
2013-09-26 12:16:00,71.2,37.0,29.46,North,-999,-999.0,-999.0,5,0.00,,,-99.99,0.0,Linux-Irox,2013-09-26 19:16:00,
2013-09-26 12:24:00,70.3,36.1,29.46,North,-999,-999.0,-999.0,5,0.00,,,-99.99,0.0,Linux-Irox,2013-09-26 19:24:00,
2013-09-26 12:31:00,71.1,36.9,29.46,North,-999,-999.0,-999.0,5,0.00,,,-99.99,0.0,Linux-Irox,2013-09-26 19:31:00,
2013-09-26 12:34:00,69.6,35.4,29.46,North,-999,-999.0,-999.0,5,0.00,,,-99.99,0.0,Linux-Irox,2013-09-26 19:34:00,
2013-09-26 12:44:00,70.3,36.1,29.46,North,-999,-999.0,-999.0,5,0.00,,,-99.99,0.0,Linux-Irox,2013-09-26 19:44:00,
2013-09-26 12:46:00,70.2,36.0,29.46,North,-999,-999.0,-999.0,5,0.00,,,-99.99,0.0,Linux-Irox,2013-09-26 19:46:00,
2013-09-26 12:54:00,70.0,35.8,29.46,North,-999,-999.0,-999.0,5,0.00,,,-99.99,0.0,Linux-Irox,2013-09-26 19:54:00,
2013-09-26 13:01:00,70.9,36.7,29.45,North,-999,-999.0,-999.0,5,0.00,,,-99.99,0.0,Linux-Irox,2013-09-26 20:01:00,
2013-09-26 13:04:00,70.5,36.3,29.45,North,-999,-999.0,-999.0,5,0.00,,,-99.99,0.0,Linux-Irox,2013-09-26 20:04:00,
2013-09-26 13:14:00,70.5,36.3,29.45,North,-999,-999.0,-999.0,5,0.00,,,-99.99,0.0,Linux-Irox,2013-09-26 20:14:00,
2013-09-26 13:16:00,70.7,36.5,29.46,North,-999,-999.0,-999.0,5,0.00,,,-99.99,0.0,Linux-Irox,2013-09-26 20:16:00,
2013-09-26 13:24:00,69.8,35.6,29.46,North,-999,-999.0,-999.0,5,0.00,,,-99.99,0.0,Linux-Irox,2013-09-26 20:24:00,
2013-09-26 13:31:00,71.4,37.2,29.46,North,-999,-999.0,-999.0,5,0.00,,,-99.99,0.0,Linux-Irox,2013-09-26 20:31:00,
2013-09-26 13:34:00,70.9,36.7,29.46,North,-999,-999.0,-999.0,5,0.00,,,-99.99,0.0,Linux-Irox,2013-09-26 20:34:00,
2013-09-26 13:44:00,70.2,36.0,29.45,North,-999,-999.0,-999.0,5,0.00,,,-99.99,0.0,Linux-Irox,2013-09-26 20:44:00,
2013-09-26 13:46:00,70.7,36.5,29.45,North,-999,-999.0,-999.0,5,0.00,,,-99.99,0.0,Linux-Irox,2013-09-26 20:46:00,
2013-09-26 13:54:00,70.7,36.5,29.45,North,-999,-999.0,-999.0,5,0.00,,,-99.99,0.0,Linux-Irox,2013-09-26 20:54:00,
2013-09-26 14:01:00,71.1,36.9,29.45,North,-999,-999.0,-999.0,5,0.00,,,-99.99,0.0,Linux-Irox,2013-09-26 21:01:00,
2013-09-26 14:04:00,70.5,36.3,29.45,North,-999,-999.0,-999.0,5,0.00,,,-99.99,0.0,Linux-Irox,2013-09-26 21:04:00,
2013-09-26 14:14:00,70.3,36.1,29.45,North,-999,-999.0,-999.0,5,0.00,,,-99.99,0.0,Linux-Irox,2013-09-26 21:14:00,
2013-09-26 14:16:00,70.5,36.3,29.44,North,-999,-999.0,-999.0,5,0.00,,,-99.99,0.0,Linux-Irox,2013-09-26 21:16:00,
2013-09-26 14:24:00,71.1,36.9,29.44,North,-999,-999.0,-999.0,5,0.00,,,-99.99,0.0,Linux-Irox,2013-09-26 21:24:00,
2013-09-26 14:31:00,70.2,36.0,29.44,North,-999,-999.0,-999.0,5,0.00,,,-99.99,0.0,Linux-Irox,2013-09-26 21:31:00,
2013-09-26 14:34:00,70.9,36.7,29.44,North,-999,-999.0,-999.0,5,0.00,,,-99.99,0.0,Linux-Irox,2013-09-26 21:34:00,
2013-09-26 14:44:00,71.2,37.0,29.44,North,-999,-999.0,-999.0,5,0.00,,,-99.99,0.0,Linux-Irox,2013-09-26 21:44:00,
2013-09-26 14:46:00,71.4,37.2,29.44,North,-999,-999.0,-999.0,5,0.00,,,-99.99,0.0,Linux-Irox,2013-09-26 21:46:00,
2013-09-26 14:54:00,71.8,37.6,29.44,North,-999,-999.0,-999.0,5,0.00,,,-99.99,0.0,Linux-Irox,2013-09-26 21:54:00,
2013-09-26 15:01:00,72.7,38.5,29.43,North,-999,-999.0,-999.0,5,0.00,,,-99.99,0.0,Linux-Irox,2013-09-26 22:01:00,
2013-09-26 15:04:00,71.6,37.4,29.43,North,-999,-999.0,-999.0,5,0.00,,,-99.99,0.0,Linux-Irox,2013-09-26 22:04:00,
2013-09-26 15:14:00,71.8,37.6,29.43,North,-999,-999.0,-999.0,5,0.00,,,-99.99,0.0,Linux-Irox,2013-09-26 22:14:00,
2013-09-26 15:16:00,72.1,37.9,29.42,North,-999,-999.0,-999.0,5,0.00,,,-99.99,0.0,Linux-Irox,2013-09-26 22:16:00,
2013-09-26 15:24:00,70.3,36.1,29.42,North,-999,-999.0,-999.0,5,0.00,,,-99.99,0.0,Linux-Irox,2013-09-26 22:24:00,
2013-09-26 15:31:00,71.1,36.9,29.42,North,-999,-999.0,-999.0,5,0.00,,,-99.99,0.0,Linux-Irox,2013-09-26 22:31:00,
2013-09-26 15:34:00,70.9,36.7,29.42,North,-999,-999.0,-999.0,5,0.00,,,-99.99,0.0,Linux-Irox,2013-09-26 22:34:00,
2013-09-26 15:44:00,70.9,36.7,29.38,North,-999,-999.0,-999.0,5,0.00,,,-99.99,0.0,Linux-Irox,2013-09-26 22:44:00,
2013-09-26 15:46:00,71.1,36.9,29.38,North,-999,-999.0,-999.0,5,0.00,,,-99.99,0.0,Linux-Irox,2013-09-26 22:46:00,
2013-09-26 15:54:00,70.9,36.7,29.38,North,-999,-999.0,-999.0,5,0.00,,,-99.99,0.0,Linux-Irox,2013-09-26 22:54:00,
2013-09-26 16:01:00,70.7,36.5,29.37,North,-999,-999.0,-999.0,5,0.00,,,-99.99,0.0,Linux-Irox,2013-09-26 23:01:00,
2013-09-26 16:04:00,70.7,36.5,29.37,North,-999,-999.0,-999.0,5,0.00,,,-99.99,0.0,Linux-Irox,2013-09-26 23:04:00,
2013-09-26 16:14:00,70.5,36.3,29.37,North,-999,-999.0,-999.0,5,0.00,,,-99.99,0.0,Linux-Irox,2013-09-26 23:14:00,
2013-09-26 16:16:00,70.7,36.5,29.40,North,-999,-999.0,-999.0,5,0.00,,,-99.99,0.0,Linux-Irox,2013-09-26 23:16:00,
2013-09-26 16:24:00,69.8,35.6,29.40,North,-999,-999.0,-999.0,5,0.00,,,-99.99,0.0,Linux-Irox,2013-09-26 23:24:00,
2013-09-26 16:31:00,69.6,35.4,29.40,North,-999,-999.0,-999.0,5,0.00,,,-99.99,0.0,Linux-Irox,2013-09-26 23:31:00,
2013-09-26 16:34:00,69.6,35.4,29.40,North,-999,-999.0,-999.0,5,0.00,,,-99.99,0.0,Linux-Irox,2013-09-26 23:34:00,
2013-09-26 16:44:00,69.3,35.1,29.41,North,-999,-999.0,-999.0,5,0.00,,,-99.99,0.0,Linux-Irox,2013-09-26 23:44:00,
2013-09-26 16:46:00,69.1,34.9,29.41,North,-999,-999.0,-999.0,5,0.00,,,-99.99,0.0,Linux-Irox,2013-09-26 23:46:00,
2013-09-26 16:54:00,69.3,35.1,29.41,North,-999,-999.0,-999.0,5,0.00,,,-99.99,0.0,Linux-Irox,2013-09-26 23:54:00,
2013-09-26 17:01:00,69.1,34.9,29.42,North,-999,-999.0,-999.0,5,0.00,,,-99.99,0.0,Linux-Irox,2013-09-27 00:01:00,
2013-09-26 17:04:00,68.7,34.5,29.42,North,-999,-999.0,-999.0,5,0.00,,,-99.99,0.0,Linux-Irox,2013-09-27 00:04:00,
2013-09-26 17:14:00,68.5,34.3,29.42,North,-999,-999.0,-999.0,5,0.00,,,-99.99,0.0,Linux-Irox,2013-09-27 00:14:00,
2013-09-26 17:16:00,68.4,34.2,29.43,North,-999,-999.0,-999.0,5,0.00,,,-99.99,0.0,Linux-Irox,2013-09-27 00:16:00,
2013-09-26 17:24:00,68.0,33.8,29.43,North,-999,-999.0,-999.0,5,0.00,,,-99.99,0.0,Linux-Irox,2013-09-27 00:24:00,
2013-09-26 17:31:00,67.8,33.6,29.43,North,-999,-999.0,-999.0,5,0.00,,,-99.99,0.0,Linux-Irox,2013-09-27 00:31:00,
2013-09-26 17:34:00,67.8,33.6,29.43,North,-999,-999.0,-999.0,5,0.00,,,-99.99,0.0,Linux-Irox,2013-09-27 00:34:00,
2013-09-26 17:44:00,67.3,33.1,29.44,North,-999,-999.0,-999.0,5,0.00,,,-99.99,0.0,Linux-Irox,2013-09-27 00:44:00,
2013-09-26 17:46:00,67.1,32.9,29.44,North,-999,-999.0,-999.0,5,0.00,,,-99.99,0.0,Linux-Irox,2013-09-27 00:46:00,
2013-09-26 17:54:00,66.7,32.5,29.44,North,-999,-999.0,-999.0,5,0.00,,,-99.99,0.0,Linux-Irox,2013-09-27 00:54:00,
2013-09-26 18:01:00,66.2,32.0,29.46,North,-999,-999.0,-999.0,5,0.00,,,-99.99,0.0,Linux-Irox,2013-09-27 01:01:00,
2013-09-26 18:04:00,66.0,31.8,29.46,North,-999,-999.0,-999.0,5,0.00,,,-99.99,0.0,Linux-Irox,2013-09-27 01:04:00,
2013-09-26 18:14:00,65.5,31.3,29.46,North,-999,-999.0,-999.0,5,0.00,,,-99.99,0.0,Linux-Irox,2013-09-27 01:14:00,
2013-09-26 18:16:00,65.5,31.3,29.46,North,-999,-999.0,-999.0,5,0.00,,,-99.99,0.0,Linux-Irox,2013-09-27 01:16:00,
2013-09-26 18:24:00,64.9,30.7,29.46,North,-999,-999.0,-999.0,5,0.00,,,-99.99,0.0,Linux-Irox,2013-09-27 01:24:00,
2013-09-26 18:31:00,64.6,30.4,29.46,North,-999,-999.0,-999.0,5,0.00,,,-99.99,0.0,Linux-Irox,2013-09-27 01:31:00,
2013-09-26 18:34:00,64.6,30.4,29.46,North,-999,-999.0,-999.0,5,0.00,,,-99.99,0.0,Linux-Irox,2013-09-27 01:34:00,
2013-09-26 18:44:00,63.9,29.7,29.47,North,-999,-999.0,-999.0,5,0.00,,,-99.99,0.0,Linux-Irox,2013-09-27 01:44:00,
2013-09-26 18:46:00,63.9,29.7,29.47,North,-999,-999.0,-999.0,5,0.00,,,-99.99,0.0,Linux-Irox,2013-09-27 01:46:00,
2013-09-26 18:54:00,63.3,29.1,29.47,North,-999,-999.0,-999.0,5,0.00,,,-99.99,0.0,Linux-Irox,2013-09-27 01:54:00,
2013-09-26 19:01:00,63.1,28.9,29.48,North,-999,-999.0,-999.0,5,0.00,,,-99.99,0.0,Linux-Irox,2013-09-27 02:01:00,
2013-09-26 19:04:00,62.6,28.4,29.48,North,-999,-999.0,-999.0,5,0.00,,,-99.99,0.0,Linux-Irox,2013-09-27 02:04:00,
2013-09-26 19:14:00,61.5,27.3,29.48,North,-999,-999.0,-999.0,5,0.00,,,-99.99,0.0,Linux-Irox,2013-09-27 02:14:00,
2013-09-26 19:16:00,61.2,27.0,29.49,North,-999,-999.0,-999.0,5,0.00,,,-99.99,0.0,Linux-Irox,2013-09-27 02:16:00,
2013-09-26 19:24:00,60.1,25.9,29.49,North,-999,-999.0,-999.0,5,0.00,,,-99.99,0.0,Linux-Irox,2013-09-27 02:24:00,
2013-09-26 19:31:00,59.4,25.2,29.49,North,-999,-999.0,-999.0,5,0.00,,,-99.99,0.0,Linux-Irox,2013-09-27 02:31:00,
2013-09-26 19:34:00,59.0,24.8,29.49,North,-999,-999.0,-999.0,5,0.00,,,-99.99,0.0,Linux-Irox,2013-09-27 02:34:00,
2013-09-26 19:44:00,58.5,24.3,29.50,North,-999,-999.0,-999.0,5,0.00,,,-99.99,0.0,Linux-Irox,2013-09-27 02:44:00,
2013-09-26 19:54:00,57.9,23.7,29.50,North,-999,-999.0,-999.0,5,0.00,,,-99.99,0.0,Linux-Irox,2013-09-27 02:54:00,
2013-09-26 20:04:00,57.6,23.4,29.51,North,-999,-999.0,-999.0,5,0.00,,,-99.99,0.0,Linux-Irox,2013-09-27 03:04:00,
2013-09-26 20:14:00,58.5,24.3,29.51,North,-999,-999.0,-999.0,5,0.00,,,-99.99,0.0,Linux-Irox,2013-09-27 03:14:00,
2013-09-26 20:24:00,58.8,24.6,29.51,North,-999,-999.0,-999.0,5,0.00,,,-99.99,0.0,Linux-Irox,2013-09-27 03:24:00,
2013-09-26 20:34:00,57.9,23.7,29.51,North,-999,-999.0,-999.0,5,0.00,,,-99.99,0.0,Linux-Irox,2013-09-27 03:34:00,
2013-09-26 20:44:00,58.6,24.4,29.52,North,-999,-999.0,-999.0,5,0.00,,,-99.99,0.0,Linux-Irox,2013-09-27 03:44:00,
2013-09-26 20:54:00,59.5,25.3,29.52,North,-999,-999.0,-999.0,5,0.00,,,-99.99,0.0,Linux-Irox,2013-09-27 03:54:00,
2013-09-26 21:04:00,59.5,25.3,29.51,North,-999,-999.0,-999.0,5,0.00,,,-99.99,0.0,Linux-Irox,2013-09-27 04:04:00,
2013-09-26 21:14:00,59.9,25.7,29.51,North,-999,-999.0,-999.0,5,0.00,,,-99.99,0.0,Linux-Irox,2013-09-27 04:14:00,
2013-09-26 21:24:00,59.5,25.3,29.52,North,-999,-999.0,-999.0,5,0.00,,,-99.99,0.0,Linux-Irox,2013-09-27 04:24:00,
2013-09-26 21:34:00,59.5,25.3,29.52,North,-999,-999.0,-999.0,5,0.00,,,-99.99,0.0,Linux-Irox,2013-09-27 04:34:00,
2013-09-26 21:44:00,59.0,24.8,29.53,North,-999,-999.0,-999.0,5,0.00,,,-99.99,0.0,Linux-Irox,2013-09-27 04:44:00,
2013-09-26 21:54:00,59.2,25.0,29.53,North,-999,-999.0,-999.0,5,0.00,,,-99.99,0.0,Linux-Irox,2013-09-27 04:54:00,
2013-09-26 22:04:00,59.2,25.0,29.54,North,-999,-999.0,-999.0,5,0.00,,,-99.99,0.0,Linux-Irox,2013-09-27 05:04:00,
2013-09-26 22:14:00,58.8,24.6,29.54,North,-999,-999.0,-999.0,5,0.00,,,-99.99,0.0,Linux-Irox,2013-09-27 05:14:00,
2013-09-26 22:24:00,58.6,24.4,29.55,North,-999,-999.0,-999.0,5,0.00,,,-99.99,0.0,Linux-Irox,2013-09-27 05:24:00,
2013-09-26 22:34:00,57.9,23.7,29.55,North,-999,-999.0,-999.0,5,0.00,,,-99.99,0.0,Linux-Irox,2013-09-27 05:34:00,
2013-09-26 22:44:00,57.4,23.2,29.55,North,-999,-999.0,-999.0,5,0.00,,,-99.99,0.0,Linux-Irox,2013-09-27 05:44:00,
2013-09-26 22:54:00,56.8,22.6,29.55,North,-999,-999.0,-999.0,5,0.00,,,-99.99,0.0,Linux-Irox,2013-09-27 05:54:00,
2013-09-26 23:04:00,57.0,22.8,29.56,North,-999,-999.0,-999.0,5,0.00,,,-99.99,0.0,Linux-Irox,2013-09-27 06:04:00,
2013-09-26 23:14:00,56.5,22.3,29.56,North,-999,-999.0,-999.0,5,0.00,,,-99.99,0.0,Linux-Irox,2013-09-27 06:14:00,
2013-09-26 23:24:00,56.1,21.9,29.56,North,-999,-999.0,-999.0,5,0.00,,,-99.99,0.0,Linux-Irox,2013-09-27 06:24:00,
2013-09-26 23:34:00,55.6,21.4,29.56,North,-999,-999.0,-999.0,5,0.00,,,-99.99,0.0,Linux-Irox,2013-09-27 06:34:00,
2013-09-26 23:44:00,55.2,21.0,29.56,North,-999,-999.0,-999.0,5,0.00,,,-99.99,0.0,Linux-Irox,2013-09-27 06:44:00,
2013-09-26 23:54:00,54.9,20.7,29.56,North,-999,-999.0,-999.0,5,0.00,,,-99.99,0.0,Linux-Irox,2013-09-27 06:54:00,